Portada
METAR-TAF:

METAR-TAF

Aeroports :

Crestview, Florida, Estats Units d'Amèrica

latitud: 30-46-20N, longitud: 086-31-12W, altitud: 65 m

Observació

L'informe es va fer fa 43 minuts, a les 14:53 UTC
Vent 8 kt del Nord
Temperatura 16°C
Humitat 45%
Pressió 1017 hPa
Visibilitat: 16.1 km
Cel clar

METAR: KCEW 011453Z AUTO 01008KT 10SM CLR 16/04 A3003 RMK AO2 SLP167 T01560044 51017

Hora: 10:36 (15:36 UTC)


TAF: manca

Observacions i pronòstics meteorològics de més de 4000 aeroports (METAR i TAF).

Les estacions disponibles són els punts grocs i vermells al mapa.

Posi el ratolí al punt desitjat per veure el nom de l'estació.

Feu clic per veure les observacions i els pronòstics meteorològics.

Per canviar el mapa: feu clic els botons verds amb una creu de color negre per apropar; al botó verd amb un guió per allunyar la imatge; o en les fletxes verdes per a mapes adjacents.


METAR-TAF: